Location: Milton Keynes
(52.0316°N, 0.7531°W)
Time: 05:45:46
(UTC+00:00)

Genesis I - Pass Details

Date: 28 January 2019
Orbit: 476 x 550 km, 64.5° (Epoch: 21 February)

Event Time Altitude Azimuth Distance (km) Brightness Sun altitude
Exits shadow 06:57:31 10° 303° (WNW) 1,845 5.4 -8.1°
Reaches altitude 10° 06:57:34 10° 304° (WNW) 1,832 5.4 -8.1°
Maximum altitude 07:00:19 17° 345° (NNW) 1,441 5.1 -7.7°
Drops below altitude 10° 07:03:04 10° 27° (NNE) 1,837 6.1 -7.3°
Sets 07:05:57 0° 48° (NE) 2,730 7.3 -6.9°
